Regional Weather Roundup
Issued by NWS

Home | Current Version | Previous Version | Graphics & Text | Print | Product List | Glossary On
Versions: 1 2 3 4 5 6 7 8 9 10 11 12 13 14 15 16 17 18 19 20 21 22 23 24 25 26 27 28 29 30 31 32 33 34 35 36 37 38 39 40 41 42 43 44 45 46 47 48 49 50
290
ASUS43 KMPX 232101
RWRMN
WEATHER ROUNDUP FOR MINNESOTA
NATIONAL WEATHER SERVICE TWIN CITIES/CHANHASSEN MN
300 PM CST THU NOV 23 2017


NOTE: "FAIR" INDICATES FEW OR NO CLOUDS BELOW 12,000 FEET WITH NO
SIGNIFICANT WEATHER AND/OR OBSTRUCTIONS TO VISIBILITY. N/A MEANS
CURRENT SKY AND/OR WEATHER CONDITIONS ARE NOT AVAILABLE.

MNZ060>063-068>070-232200-
   Twin Cities Metro

CITY           SKY/WX    TMP DP  RH WIND       PRES   REMARKS
TWIN CITIES    MOSUNNY   44  25  47 SW7       29.84F
ST PAUL        SUNNY     45  23  42 S5        29.85F
CRYSTAL        SUNNY     44  21  40 S8        29.81F
BLAINE         MOSUNNY   46  25  42 S8        29.82F
LAKEVILLE      SUNNY     45  25  45 S7        29.84S
EDEN PRAIRIE   SUNNY     46  24  42 S10       29.82F
SOUTH ST PAUL  SUNNY     46  23  41 S5        29.83F
LAKE ELMO      FAIR      43  25  49 S8        29.84F
$$
MNZ001>005-007-008-013>017-022>024-027-028-232200-
   Northwest Minnesota

CITY           SKY/WX    TMP DP  RH WIND       PRES   REMARKS
BEMIDJI        CLOUDY    32  27  82 SE7       29.66F WCI  26
HALLOCK        CLOUDY    32  30  93 S21       29.60F WCI  20
ROSEAU         CLOUDY    30  27  86 S9        29.62F WCI  22
WARROAD        CLOUDY    30  27  86 SE8       29.63F WCI  23
CROOKSTON      SUNNY     39  30  70 S16       29.63F
FOSSTON        CLOUDY    37  30  75 S9        29.63F
DETROIT LAKES  SUNNY     41  28  60 S13       29.66F
MOORHEAD       SUNNY     45  27  49 S16       29.65F
PARK RAPIDS    MOSUNNY   41  29  62 S10       29.66F
MAHNOMEN       FAIR      40  31  70 S9G17     29.63F
$$
MNZ006-009>011-018-025>026-232200-
   North Central Minnesota

CITY           SKY/WX    TMP DP  RH WIND       PRES   REMARKS
BAUDETTE       CLOUDY    29  23  78 S10       29.66F WCI  20
FLAG ISLAND    CLOUDY    25  21  86 SE10      29.63F WCI  15
INTL FALLS     MOSUNNY   31  21  66 E5        29.69F WCI  26
WASKISH        CLOUDY    28  25  86 SE6       29.67F WCI  22
BIG FORK       CLOUDY    34  27  75 S3        29.69F
LONGVILLE      CLOUDY    37  25  60 SE7       29.69F
GRAND RAPIDS   CLOUDY    35  24  64 S8        29.73F WCI  29
CRANE LAKE     CLOUDY    30  21  69 CALM      29.74F
ORR            CLOUDY    34  21  60 CALM      29.69F
COOK           PTSUNNY   36  25  64 SW5       29.71F
WALKER         FAIR      37  26  64 SE3       29.67F
$$
MNZ012-019>021-037-232200-
   Northeast Minnesota

CITY           SKY/WX    TMP DP  RH WIND       PRES   REMARKS
DULUTH         SUNNY     34  25  69 SW12      29.74F WCI  25
ELY            CLEAR     32  21  64 S6        29.72S WCI  26
HIBBING        MOSUNNY   34  23  64 S7        29.70F WCI  28
EVELETH        SUNNY     35  22  59 S8        29.72F WCI  28
DULUTH HARBOR  SUNNY     39  27  60 SW10      29.78F
TWO HARBORS    SUNNY     39  28  65 S9        29.74S
GRAND MARAIS     N/A     34  26  72 W7        29.78F WCI  28
G MARAIS ARPRT CLOUDY    28  18  64 CALM      29.73F
$$
MNZ029>031-032-039>041-046>048-054>057-064-232200-
   West Central Minnesota

CITY           SKY/WX    TMP DP  RH WIND       PRES   REMARKS
FERGUS FALLS   SUNNY     45  28  53 S17       29.70F
WHEATON        CLOUDY    52  30  43 SE10      29.69F
MORRIS         MOSUNNY   46  28  49 S16       29.70F
ALEXANDRIA     CLOUDY    44  28  53 S10       29.72F
ELBOW LAKE     FAIR      42  28  57 S13       29.70F
WADENA         MOSUNNY   45  30  57 S12       29.69F
GLENWOOD       MOSUNNY   43  28  56 S10       29.73F
APPLETON       SUNNY     48  28  46 SE9       29.72F
BENSON         CLOUDY    48  28  46 S13       29.75F
ORTONVILLE     CLOUDY    55  36  47 N10       29.70F
MADISON        CLOUDY    57  36  44 S8        29.73F
WILLMAR        FAIR      48  30  49 S9        29.77F
$$
MNZ033>034-036-042>043-049>051-058-059-232200-
   Central Minnesota

CITY           SKY/WX    TMP DP  RH WIND       PRES   REMARKS
ST CLOUD       MOSUNNY   43  26  51 S12       29.78F
SAUK CENTRE    MOCLDY    42  29  60 S12       29.74F
PAYNESVILLE    SUNNY     44  29  56 S10       29.77F
AITKIN         PTSUNNY   36  25  64 S6        29.73F
PINE RIVER     SUNNY     37  27  65 SE7       29.74F
BRAINERD       SUNNY     42  27  55 S10       29.73F
STAPLES        MOSUNNY   43  27  52 S10       29.71F
LITTLE FALLS   SUNNY     43  19  39 S7        29.76F
LITCHFIELD     SUNNY     46  28  49 S3        29.79F
BUFFALO        SUNNY     43  24  47 S6        29.82F
MAPLE LAKE     MOSUNNY   44  28  53 S5        29.82F
HUTCHINSON     CLOUDY    47  30  52 S8        29.82F
$$
MNZ037-044-045-052-053-232200-
   East Central Minnesota

CITY           SKY/WX    TMP DP  RH WIND       PRES   REMARKS
PRINCETON      PTSUNNY   45  25  45 S8        29.79F
MORA           SUNNY     37  25  60 S8        29.80F
CAMBRIDGE      SUNNY     45  27  49 S8        29.80F
RUSH CITY      SUNNY     41  23  48 S7        29.80F
MOOSE LAKE     SUNNY     37  23  56 S6        29.74F
HINCKLEY       FAIR      39  27  60 S7        29.78F
CLOQUET        SUNNY     36  21  55 S5        29.75F
MCGREGOR       CLOUDY    36  27  69 S7        29.75F
$$
MNZ071>073-080-081-089-090-097-098-232200-
   Southwest Minnesota

CITY           SKY/WX    TMP DP  RH WIND       PRES   REMARKS
MONTEVIDEO     MOSUNNY   52  34  50 S5        29.74F
GRANITE FALLS  MOSUNNY   54  35  47 SE6       29.77F
CANBY          CLOUDY    58  37  44 SW9       29.73F
MARSHALL       CLOUDY    56  36  47 S9        29.75F
REDWOOD FALLS  CLOUDY    51  29  42 S12       29.78F
OLIVIA         CLOUDY    50  32  50 S12       29.77F
PIPESTONE      CLOUDY    54  34  47 SW13      29.78F
WINDOM           N/A     54  32  43 S10       29.80F
WORTHINGTON    CLOUDY    53  33  46 SW13      29.81F
JACKSON        CLOUDY    52  32  46 S13       29.82F
SLAYTON        MOSUNNY   53  35  49 SW12      29.80F
$$
MNZ065>067-074>077-082>085-091>093-232200-
   South Central Minnesota

CITY           SKY/WX    TMP DP  RH WIND       PRES   REMARKS
MANKATO        SUNNY     47  28  47 SW7       29.85S
NEW ULM        SUNNY     48  28  46 CALM      29.82F
ST JAMES       SUNNY     52  30  43 S12       29.83F
FAIRMONT       CLOUDY    50  31  48 S10       29.84F
GLENCOE        SUNNY     46  28  50 S8        29.82F
FARIBAULT      SUNNY     46  27  46 S7        29.84F
OWATONNA       SUNNY     46  27  46 S8        29.85F
WASECA         SUNNY     45  28  53 S8        29.86S
ALBERT LEA     SUNNY     46  23  39 S7        29.85F
$$
MNZ078>079-086>088-094>096-232200-
   Southeast Minnesota

CITY           SKY/WX    TMP DP  RH WIND       PRES   REMARKS
ROCHESTER      SUNNY     46  26  45 S8        29.86F
RED WING       SUNNY     43  18  36 SE3       29.84F
STANTON        SUNNY     46  26  44 SW7       29.83F
DODGE CENTER   SUNNY     45  25  45 S9        29.84F
WINONA         SUNNY     46  25  42 SW3       29.87F
PRESTON        SUNNY     45  24  42 W3        29.87F
$$
ABBREVIATIONS USED IN REMARKS
   TC - TEMPERATURES IN CELSIUS
  WCI - WIND CHILL INDEX
   HX - HEAT INDEX
  VSB - VISIBILITY
$$




USA.gov is the U.S. government's official web portal to all federal, state and local government web resources and services.